Back to catalog

TIROS 8

AliveWeatherLEO
NORAD 716·PAYLOAD·🇺🇸 United States

Launched Dec 21, 1963 from Vandenberg Space Force Base

Loading…

Next Passes (next 24 hours)

TLE

FreshSource: Space-Track

Epoch: Sep 14, 2026, 11:17 UTC

1 00716U 63054A   26257.47018442  .00000196  00000-0  59254-4 0  9999
2 00716  58.4937  65.4327 0024780  32.5219 327.7341 14.73251327328872

Track TIROS 8 in real time with AllMySat

Download on the App Store